STARLINK-5562 (56336 NORAD) Tracking and Keplerian Element Data

This shows tracking and keplerian element data for the satellite.

Feedback or suggestion? Click here.




ElementValue
Catalog56336
NameSTARLINK-5562
Epoch Orbit184
Epoch Day127.25001157
Epoch Year2023
RAAN126.7443
Inclination97.6631
Eccentricity0.0001472
Argument of Perigee105.8772
Mean Anonmoly192.0201
Mean Motion15.67590598
Decay Rate-0.00778075
L11 56336U 23058V 23127.25001157 -.00778075 00000+0 -78618-2 0 9994
L22 56336 97.6631 126.7443 0001472 105.8772 192.0201 15.67590598 1841



Live tracking and technical data element details for STARLINK-5562 (NORAD 56336). STARLINK-5562 can be tracked NOW for your location showing map with azimuth and elevation plus other details from your city location.







IsCatalogInMostPopularTable: catalog: 56336, numindb: 5
Update: records affected: 1



GetName: 56336 STARLINK-5562

Hit Count: updated at: Wed, 07 Jun 2023 09:48:45 GMT